#timestamp,LO_Frequency,Hit,StdDev 
1634022015.4,286047001.3,N
1634022035.2,286047002.2,N
1634022055.1,286047000.8,N
1634022056.0,286047000.8,N
1634022075.8,286047000.8,N
1634022095.7,286046998.2,N
1634022115.5,286047002.6,N
1634022135.3,286047000.3,N
1634022155.2,286046999.1,N
1634022175.0,286047002.6,N
1634022175.9,286047002.6,N
1634022195.8,286047003.1,N
1634022215.6,286047004.3,N
1634022235.4,286047003.6,N
1634022255.3,286047003.4,N
1634022275.1,286047001.3,N
1634022295.9,286047006.0,Y
1634022315.7,286047003.1,P
1634022335.5,286047002.9,P
1634022355.4,286047003.1,P
1634022375.2,286047001.9,N
1634022395.0,286047000.1,N
1634022395.9,286047000.1,N
1634022415.8,286047001.9,N
1634022435.6,286047001.6,N
1634022455.5,286047000.1,N
1634022475.3,286046998.5,N
1634022495.1,286047002.4,N
1634022515.9,286047002.1,N
1634022535.7,286047002.3,N
1634022555.6,286046998.3,N
1634022575.4,286047000.8,N
1634022595.2,286046999.9,N
1634022615.1,286046998.2,N
1634022616.0,286046998.2,N
1634022635.8,286046998.7,N
1634022655.7,286046997.8,N
1634022675.5,286046995.2,N
1634022695.3,286046997.6,N
1634022715.2,286046995.2,N
1634022735.0,286046994.9,N
1634022735.9,286046994.9,N
1634022755.7,286046997.2,N
1634022775.6,286046998.8,N
1634022795.4,286046998.4,N
1634022815.3,286046999.1,N
1634022835.1,286046999.0,N
1634022855.8,286046998.8,N
1634022875.7,286046996.6,N
1634022895.5,286046996.5,N
1634022915.4,286046997.9,N
1634022935.2,286046999.6,N
1634022955.0,286046999.2,N
1634022955.9,286046999.2,N
1634022975.8,286046996.9,N
1634022995.6,286046997.8,N
1634023015.4,286046997.5,N
1634023035.3,286046995.1,N
1634023055.1,286046997.6,N
1634023075.9,286046997.5,N
1634023095.7,286046998.0,N
1634023115.5,286046997.9,N
1634023135.4,286046996.2,N
1634023155.2,286046993.3,Y
1634023175.0,286046997.3,P
1634023176.0,286046997.3,P
1634023195.8,286046999.4,P
1634023215.6,286046999.0,N
1634023235.5,286046999.5,N
1634023255.3,286046998.5,N
1634023275.1,286047000.3,N
1634023295.9,286047000.6,N
1634023315.7,286046999.7,N
1634023335.6,286047002.6,N
1634023355.4,286047002.8,N
1634023375.2,286047000.3,N
1634023395.1,286046999.9,N
1634023396.0,286046999.9,N
1634023415.8,286047000.4,N
1634023435.6,286047001.1,N
1634023455.5,286046999.9,N
1634023475.3,286047001.9,N
1634023495.2,286047001.9,N
1634023515.9,286047000.9,N
1634023535.7,286046998.2,N
1634023555.6,286046998.3,N
1634023575.4,286046997.3,N
1634023595.2,286046998.4,N
1634023615.1,286047000.4,N
1634023616.0,286047000.4,N
1634023635.8,286046999.8,N
1634023655.7,286047002.8,N
1634023675.5,286047002.0,N
1634023695.3,286047002.7,N
1634023715.2,286047002.2,N
1634023735.0,286047002.8,N
1634023735.9,286047002.8,N
1634023755.8,286047001.2,N
1634023775.6,286047001.0,N
1634023795.4,286046998.2,N
1634023815.3,286046999.1,N
1634023835.1,286046998.7,N
1634023855.9,286046998.8,N
1634023875.7,286046998.3,N
1634023895.5,286046996.7,N
1634023915.4,286046997.7,N
1634023935.2,286046997.3,N
1634023955.0,286046998.6,N
1634023955.9,286046998.6,N
1634023975.8,286046999.1,N
1634023995.6,286046999.0,N
1634024015.5,286046999.3,N
1634024035.3,286046999.2,N
1634024055.1,286046997.6,N
1634024075.9,286046997.6,N
1634024095.7,286046997.6,N
1634024115.5,286046997.3,N
1634024135.4,286046995.0,N
1634024155.2,286046993.4,Y
1634024175.1,286046995.3,P
1634024176.0,286046995.3,N
1634024195.8,286046995.4,N
1634024215.6,286046993.7,Y
1634024235.5,286046998.9,P
1634024255.3,286046998.6,N
1634024275.2,286046999.9,N
1634024295.9,286047000.7,N
1634024315.7,286046999.7,N
1634024335.6,286047002.4,N
1634024355.4,286046999.8,N
1634024375.2,286047002.2,N
1634024395.1,286047004.4,N
1634024396.0,286047004.4,N
1634024415.8,286047004.2,N
1634024435.7,286047002.8,N
1634024455.5,286047004.0,N
1634024475.3,286047002.7,N
1634024495.2,286047000.4,N
1634024515.0,286046999.4,N
1634024515.9,286046999.4,N
1634024535.8,286046998.4,N
1634024555.6,286047000.0,N
1634024575.4,286047000.0,N
1634024595.3,286047002.6,N
1634024615.1,286047001.4,N
1634024635.8,286047001.7,N
1634024655.7,286047001.5,N
1634024675.5,286047001.9,N
1634024695.4,286047002.4,N
1634024715.2,286047002.6,N
1634024735.0,286047003.7,N
1634024735.9,286047003.7,N
1634024755.8,286047003.3,N
1634024775.6,286047003.1,N
1634024795.4,286047007.1,Y
1634024815.3,286047005.9,P
1634024835.1,286047005.5,N
1634024855.9,286047003.3,N
1634024875.7,286047003.0,N
1634024895.5,286047003.1,N
1634024915.4,286047005.3,Y
1634024935.2,286046998.4,P
1634024955.0,286046999.1,N
1634024956.0,286046999.1,N
1634024975.8,286046999.2,N
1634024995.6,286046999.5,N
1634025015.5,286046996.5,N
1634025035.3,286046999.0,N
1634025055.1,286046999.6,N
1634025075.9,286046997.5,N
1634025095.7,286046995.2,N
1634025115.6,286046993.3,Y
1634025135.4,286046995.0,P
1634025155.2,286046998.0,N
1634025175.1,286046995.2,N
1634025176.0,286046995.2,N
1634025195.8,286046997.7,N
1634025215.6,286046995.7,N
1634025235.5,286046997.2,N
1634025255.3,286046999.5,N
1634025275.2,286046998.8,N
1634025295.9,286046998.6,N
1634025315.7,286046998.7,N
1634025335.6,286046999.4,N
1634025355.4,286046999.6,N
1634025375.2,286046997.5,N
1634025395.1,286046997.1,N
1634025396.0,286046997.1,N
1634025415.8,286046996.7,N
1634025435.7,286046997.5,N
1634025455.5,286046996.6,N
1634025475.3,286046996.5,N
1634025495.2,286046998.7,N
1634025515.0,286047000.8,N
1634025515.9,286047000.8,N
1634025535.8,286046997.1,N
1634025555.6,286046997.4,N
1634025575.4,286046999.4,N
1634025595.3,286046997.0,N
